Regional Weather Roundup
Issued by NWS

Home | Current Version | Previous Version | Graphics & Text | Print | Product List | Glossary On
Versions: 1 2 3 4 5 6 7 8 9 10 11 12 13 14 15 16 17 18 19 20 21 22 23 24 25 26 27 28 29 30 31 32 33 34 35 36 37 38 39 40 41 42 43 44 45 46 47 48 49 50
000
ASUS45 KCYS 101210
RWRWY

WYOMING REGIONAL WEATHER ROUNDUP
NATIONAL WEATHER SERVICE CHEYENNE WY
500 AM MST WED FEB 10 2016

NOTE:  "FAIR" INDICATES FEW OR NO CLOUDS BELOW 12,000 FEET
WITH NO SIGNIFICANT WEATHER AND/OR OBSTRUCTIONS TO VISIBILITY.

WYZ001-101300-
YELLOWSTONE NATIONAL PARK

CITY           SKY/WX    TMP DP  RH WIND       PRES   REMARKS
LK YELLOWSTONE   N/A      3  -1  83 CALM      30.38F
6HR MIN TEMP:   3; 6HR MAX TEMP:  13;

W YELLOWSTONE  NOT AVBL

$$
WYZ002>013-054>058-071-098>099-101300-
NORTHERN WYOMING

CITY           SKY/WX    TMP DP  RH WIND       PRES   REMARKS
JACKSON        FAIR       1   0  92 N9        30.41S WCI -14
CODY           FAIR      41  16  36 N5G25     30.09S
GREYBULL       FAIR      19  16  88 N3        30.13F
6HR MIN TEMP:  18; 6HR MAX TEMP:  28;

WORLAND        FAIR      20  17  88 SW3       30.13F
6HR MIN TEMP:  17; 6HR MAX TEMP:  28;

SHERIDAN       CLEAR     46  12  25 CALM      29.96F
6HR MIN TEMP:  28; 6HR MAX TEMP:  38;

BUFFALO        FAIR      55  10  16 NW13      30.03R
6HR MIN TEMP:  38; 6HR MAX TEMP:  60;

GILLETTE       FAIR      41  21  44 W12       29.99S
6HR MIN TEMP:  39; 6HR MAX TEMP:  46;

HULETT         FAIR      39  23  52 S9        29.99S WCI  33
NEWCASTLE      FAIR      32  21  64 N6        30.02S WCI  26

$$
WYZ014>020-022>026-101>103-101300-
CENTRAL WYOMING

CITY           SKY/WX    TMP DP  RH WIND       PRES   REMARKS
BIG PINEY      FAIR       9   5  84 CALM      30.38R
6HR MIN TEMP:   9; 6HR MAX TEMP:  20;

PINEDALE       FAIR      10   5  79 NW6       30.37F WCI   1
DUBOIS         FAIR      30   9  40 NW22G28   30.27S WCI  17
LANDER         FAIR      22  15  75 NW3       30.19S
6HR MIN TEMP:  21; 6HR MAX TEMP:  30;

RIVERTON       FAIR      20  15  81 CALM      30.21F
6HR MIN TEMP:  17; 6HR MAX TEMP:  28;

CASPER         FAIR      38  19  46 SW26G38   30.14F WCI  26
6HR MIN TEMP:  35; 6HR MAX TEMP:  38; 6HR PCP: TRACE;

DOUGLAS        FAIR      37  23  56 NW16        N/A  WCI  28
6HR MIN TEMP:  28; 6HR MAX TEMP:  39;


$$
WYZ021-027>030-104>119-101300-
SOUTHERN WYOMING

CITY           SKY/WX    TMP DP  RH WIND       PRES   REMARKS
EVANSTON       FAIR      25  14  63 S10       30.39S WCI  15
6HR MIN TEMP:  24; 6HR MAX TEMP:  32;

FORT BRIDGER   SUNNY     34  10  37 W7        30.40R WCI  28
ROCK SPRINGS   FAIR      30  17  58 SW5       30.36S WCI  25
6HR MIN TEMP:  25; 6HR MAX TEMP:  32;

DIXON          FAIR       7   4  87 SE6       30.44S WCI  -3
RAWLINS        FAIR      33  15  47 SE10      30.31S WCI  25
6HR MIN TEMP:  31; 6HR MAX TEMP:  38;

SARATOGA       FAIR      27  14  59 S14       30.34S WCI  15
LARAMIE        FAIR      35  13  40 W9        30.25S WCI  28
6HR MIN TEMP:  23; 6HR MAX TEMP:  36;

CHEYENNE       FAIR      41  16  36 W20G30    30.14F
6HR MIN TEMP:  38; 6HR MAX TEMP:  42;

TORRINGTON     FAIR      41  23  48 W15       30.05F
6HR MIN TEMP:  32; 6HR MAX TEMP:  41;

PINE BLUFFS    FAIR      34  23  64 W10       30.11F WCI  26

$$



USA.gov is the U.S. government's official web portal to all federal, state and local government web resources and services.